Shreveport, LA

9:02 AM CDT on August 17, 2017 (GMT -0500)
Shreveport Regional

Weather History for KSHV - July, 2013

Change the Weather History Date:

Thursday, July 25, 2013

  Actual Average Record
Temperature  
Mean Temperature 81 °F 84 °F  
Max Temperature 94 °F 94 °F 104 °F (1923)
Min Temperature 68 °F 73 °F 63 °F (1911)
Degree Days  
Heating Degree Days 0 0  
Month to date heating degree days 0 0  
Since 1 June heating degree days 0 0  
Since 1 July heating degree days 0 0  
Cooling Degree Days 16 18  
Month to date cooling degree days 425 445  
Year to date cooling degree days 1310 1287  
Since 1 June cooling degree days 923 889  
Growing Degree Days 30 (Base 50)    
Moisture  
Dew Point 70 °F    
Average Humidity 72    
Maximum Humidity 97    
Minimum Humidity 46    
Precipitation  
Precipitation 0.00 in 0.11 in 1.92 in (1933)
Month to date precipitation 0.82 3.00  
Year to date precipitation 25.42 30.61  
Snow  
Snow 0.00 in - - ()
Month to date snowfall 0.0  
Since 1 June snowfall 0.0  
Since 1 July snowfall 0.0  
Snow Depth 0.00 in    
Sea Level Pressure  
Sea Level Pressure 30.00 in    
Wind  
Wind Speed 4 mph (ESE)    
Max Wind Speed 14 mph    
Max Gust Speed 17 mph    
Visibility 10 miles    
Events      
T = Trace of Precipitation, MM = Missing Value Source: NWS Daily Summary

Daily Weather History Graph

Daily Weather History Graph

Search for Another Location

Airport or City:

Trip Planner

Search our weather history database for the weather conditions in past years. The results will help you decide how hot, cold, wet, or windy it might be!

Date:

Astronomy

Jul. 25, 2013 Rise Set
Actual Time 6:25 AM CDT 8:18 PM CDT
Civil Twilight 5:58 AM CDT 8:45 PM CDT
Nautical Twilight 5:25 AM CDT 9:18 PM CDT
Astronomical Twilight 4:50 AM CDT 9:52 PM CDT
Moon 10:16 PM CDT (7/25) 9:40 AM CDT (7/25)
Length of Visible Light 14h 47m
Length of Day
13h 52m
Waning Gibbous, 88% of the Moon is Illuminated
Jul 25
Waning Gibbous
Jul 29
Last Quarter
Aug 6
New
Aug 14
First Quarter
Aug 20
Full

Hourly Weather History & Observations

Time (CDT) Temp. Heat Index Dew Point Humidity Pressure Visibility Wind Dir Wind Speed Gust Speed Precip Events Conditions
12:56 AM 75.0 °F - 70.0 °F 84% 29.96 in 10.0 mi Calm Calm - N/A   Clear
1:56 AM 75.0 °F - 70.0 °F 84% 29.95 in 10.0 mi Calm Calm - N/A   Clear
2:56 AM 73.9 °F - 69.1 °F 85% 29.95 in 10.0 mi Calm Calm - N/A   Clear
3:56 AM 72.0 °F - 69.1 °F 91% 29.96 in 10.0 mi Calm Calm - N/A   Partly Cloudy
4:56 AM 70.0 °F - 68.0 °F 93% 29.98 in 9.0 mi Calm Calm - N/A   Scattered Clouds
5:56 AM 70.0 °F - 68.0 °F 93% 29.99 in 10.0 mi Calm Calm - N/A   Mostly Cloudy
6:56 AM 69.1 °F - 68.0 °F 96% 30.01 in 9.0 mi Calm Calm - N/A   Mostly Cloudy
7:56 AM 75.9 °F - 72.0 °F 87% 30.02 in 10.0 mi Calm Calm - N/A   Scattered Clouds
8:56 AM 82.0 °F 86.3 °F 71.1 °F 69% 30.03 in 10.0 mi NNE 3.5 mph - N/A   Scattered Clouds
9:56 AM 84.0 °F 88.4 °F 70.0 °F 63% 30.04 in 10.0 mi ESE 3.5 mph - N/A   Partly Cloudy
10:56 AM 88.0 °F 93.8 °F 71.1 °F 57% 30.04 in 10.0 mi Variable 4.6 mph - N/A   Scattered Clouds
11:56 AM 87.1 °F 92.8 °F 71.1 °F 59% 30.04 in 10.0 mi Variable 3.5 mph - N/A   Mostly Cloudy
12:56 PM 90.0 °F 95.4 °F 70.0 °F 52% 30.04 in 10.0 mi Variable 4.6 mph - N/A   Mostly Cloudy
1:56 PM 89.1 °F 94.1 °F 70.0 °F 53% 30.04 in 10.0 mi SSE 6.9 mph - N/A   Overcast
2:56 PM 93.0 °F 100.1 °F 71.1 °F 49% 30.02 in 10.0 mi SSW 4.6 mph - N/A   Scattered Clouds
3:56 PM 93.0 °F 97.9 °F 69.1 °F 45% 30.01 in 10.0 mi Variable 3.5 mph - N/A   Partly Cloudy
4:56 PM 91.0 °F 95.6 °F 69.1 °F 48% 30.01 in 10.0 mi ESE 4.6 mph - N/A   Mostly Cloudy
5:56 PM 89.1 °F 94.1 °F 70.0 °F 53% 30.01 in 10.0 mi ENE 5.8 mph - N/A   Mostly Cloudy
6:56 PM 89.1 °F 94.1 °F 70.0 °F 53% 29.99 in 10.0 mi East 9.2 mph - N/A   Mostly Cloudy
7:56 PM 86.0 °F 91.5 °F 71.1 °F 61% 29.99 in 10.0 mi East 6.9 mph - N/A   Overcast
8:56 PM 84.0 °F 89.6 °F 72.0 °F 67% 29.99 in 10.0 mi East 5.8 mph - N/A   Overcast
9:56 PM 82.9 °F 87.5 °F 71.1 °F 67% 30.00 in 10.0 mi ESE 4.6 mph - N/A   Mostly Cloudy
10:56 PM 82.0 °F 86.3 °F 71.1 °F 69% 30.02 in 10.0 mi ESE 3.5 mph - N/A   Overcast
11:56 PM 81.0 °F 85.2 °F 72.0 °F 74% 30.02 in 10.0 mi SE 3.5 mph - N/A   Mostly Cloudy